Date String (YYYY-MM-DD hh:mm:ss) UTC,Instrument flags,Ambient pressure (hPa),Sample flow (lpm),Bypass flow (lpm),Sample temperature (°C),Ambient temperature (°C),ASC tube jacket temperature (°C),LED temperature (°C),Box temperature (°C),Sample RH (%),Span deviation,Mass concentration (μg/m³),Mass concentration (μg/m³),Mass concentration (μg/m³)
DateTimeUTC,F1_M11,P_M11,Q1_M11,Q2_M11,T1_M11,T2_M11,T3_M11,T4_M11,T5_M11,U1_M11,ZSPAN_M11,X0_M11,X2_M11,X1_M11
2022-05-20 02:00:00,,0809.9,5.01,0.00,29.4,28.6,00.0,38.1,31.4,16.5,0000.0,0096.08,0013.43,0002.91
2022-05-20 02:01:00,,0810.0,4.99,0.00,29.4,28.6,00.0,38.2,31.4,16.5,0000.0,0102.51,0014.10,0002.93
2022-05-20 02:02:00,,0810.1,5.00,0.00,29.4,27.9,00.0,38.1,31.2,16.6,0000.0,0108.52,0014.58,0002.95
2022-05-20 02:03:00,,0810.2,5.01,0.00,29.3,27.1,00.0,38.1,31.0,16.7,0000.0,0112.84,0015.11,0002.95
2022-05-20 02:04:00,,0810.2,5.00,0.00,29.3,27.0,00.0,38.0,30.9,16.8,0000.0,0115.99,0015.45,0002.94
2022-05-20 02:05:00,,0810.2,4.99,0.00,29.2,27.0,00.0,38.0,30.9,16.9,0000.0,0107.01,0014.50,0002.80
2022-05-20 02:06:00,,0810.1,5.01,0.00,29.1,27.1,00.0,38.0,30.9,16.9,0000.0,0096.47,0013.28,0002.63
2022-05-20 02:07:00,,0810.0,5.01,0.00,29.1,27.3,00.0,38.0,31.0,17.0,0000.0,0085.98,0012.03,0002.45
2022-05-20 02:08:00,,0809.9,5.00,0.00,29.1,27.5,00.0,38.0,31.0,17.1,0000.0,0076.43,0010.74,0002.30
2022-05-20 02:09:00,,0809.9,5.01,0.00,29.2,27.6,00.0,38.0,31.0,17.1,0000.0,0065.81,0009.53,0002.15
2022-05-20 02:10:00,,0810.0,5.00,0.00,29.2,27.8,00.0,38.0,31.1,17.1,0000.0,0061.14,0008.92,0002.07
2022-05-20 02:11:00,,0810.1,4.99,0.00,29.2,27.9,00.0,38.1,31.1,17.1,0000.0,0054.67,0008.23,0001.99
2022-05-20 02:12:00,,0810.0,5.00,0.00,29.2,28.0,00.0,38.1,31.2,17.1,0000.0,0049.96,0007.78,0001.96
2022-05-20 02:13:00,,0810.1,5.00,0.00,29.2,28.1,00.0,38.1,31.2,17.0,0000.0,0044.58,0007.42,0001.92
2022-05-20 02:14:00,,0810.2,4.98,0.00,29.3,28.2,00.0,38.1,31.2,17.0,0000.0,0041.33,0007.02,0001.89
2022-05-20 02:15:00,,0810.3,5.01,0.00,29.3,28.3,00.0,38.1,31.3,16.9,0000.0,0038.51,0006.70,0001.88
2022-05-20 02:16:00,,0810.3,4.99,0.00,29.3,28.4,00.0,38.1,31.3,16.8,0000.0,0037.40,0006.49,0001.89
2022-05-20 02:17:00,,0810.4,5.00,0.00,29.4,28.4,00.0,38.2,31.3,16.8,0000.0,0035.44,0006.00,0001.88
2022-05-20 02:18:00,,0810.6,5.00,0.00,29.4,28.5,00.0,38.2,31.3,16.8,0000.0,0033.47,0005.70,0001.88
2022-05-20 02:19:00,,0810.7,5.00,0.00,29.4,28.5,00.0,38.2,31.4,16.8,0000.0,0031.01,0005.43,0001.89
2022-05-20 02:20:00,,0810.7,5.00,0.00,29.4,28.6,00.0,38.2,31.4,16.7,0000.0,0027.46,0005.35,0001.91
2022-05-20 02:21:00,,0810.7,4.99,0.00,29.5,28.6,00.0,38.3,31.4,16.7,0000.0,0027.12,0005.25,0001.94
2022-05-20 02:22:00,,0810.7,5.00,0.00,29.5,28.6,00.0,38.3,31.4,16.6,0000.0,0027.54,0005.27,0001.95
2022-05-20 02:23:00,,0810.8,5.00,0.00,29.5,28.7,00.0,38.3,31.5,16.6,0000.0,0026.98,0005.23,0001.96
2022-05-20 02:24:00,,0810.9,5.01,0.00,29.5,28.7,00.0,38.3,31.5,16.6,0000.0,0026.72,0005.14,0001.98
2022-05-20 02:25:00,,0810.9,5.00,0.00,29.6,28.7,00.0,38.4,31.5,16.5,0000.0,0025.62,0005.10,0002.00
2022-05-20 02:26:00,,0811.0,4.99,0.00,29.6,28.7,00.0,38.4,31.5,16.5,0000.0,0023.33,0005.02,0002.01
2022-05-20 02:27:00,,0811.0,5.00,0.00,29.6,28.8,00.0,38.4,31.6,16.5,0000.0,0021.42,0004.88,0002.02
2022-05-20 02:28:00,,0811.1,4.99,0.00,29.6,28.8,00.0,38.4,31.6,16.4,0000.0,0020.85,0004.94,0002.04
2022-05-20 02:29:00,,0811.2,5.01,0.00,29.7,28.8,00.0,38.4,31.6,16.3,0000.0,0020.30,0004.96,0002.04
2022-05-20 02:30:00,,0811.2,5.01,0.00,29.7,28.9,00.0,38.5,31.6,16.1,0000.0,0021.54,0004.92,0002.05
2022-05-20 02:31:00,,0811.2,5.00,0.00,29.7,28.9,00.0,38.5,31.7,16.0,0000.0,0022.11,0004.84,0002.08
2022-05-20 02:32:00,,0811.2,5.00,0.00,29.8,28.9,00.0,38.5,31.7,15.9,0000.0,0020.08,0004.78,0002.09
2022-05-20 02:33:00,,0811.3,5.00,0.00,29.8,29.0,00.0,38.6,31.8,15.7,0000.0,0017.62,0004.62,0002.11
2022-05-20 02:34:00,,0811.6,4.99,0.00,29.8,29.0,00.0,38.6,31.8,15.7,0000.0,0017.43,0004.54,0002.13
2022-05-20 02:35:00,,0811.6,5.00,0.00,29.8,29.0,00.0,38.6,31.8,15.6,0000.0,0016.96,0004.50,0002.15
2022-05-20 02:36:00,,0811.8,5.00,0.00,29.9,28.8,00.0,38.6,31.7,15.6,0000.0,0017.63,0004.48,0002.18
2022-05-20 02:37:00,,0811.9,5.01,0.00,29.8,27.8,00.0,38.5,31.4,15.6,0000.0,0018.34,0004.48,0002.21
2022-05-20 02:38:00,,0812.0,4.99,0.00,29.7,27.1,00.0,38.5,31.2,15.7,0000.0,0018.72,0004.47,0002.23
2022-05-20 02:39:00,,0812.1,5.01,0.00,29.6,26.9,00.0,38.5,31.1,15.8,0000.0,0017.83,0004.40,0002.24
2022-05-20 02:40:00,,0812.1,4.98,0.00,29.5,27.0,00.0,38.4,31.1,15.9,0000.0,0018.65,0004.44,0002.27
2022-05-20 02:41:00,,0812.1,5.01,0.00,29.4,27.1,00.0,38.4,31.1,16.0,0000.0,0017.55,0004.46,0002.29
2022-05-20 02:42:00,,0812.2,5.00,0.00,29.4,27.3,00.0,38.4,31.1,16.0,0000.0,0017.66,0004.48,0002.31
2022-05-20 02:43:00,,0812.3,5.00,0.00,29.4,27.5,00.0,38.4,31.2,16.0,0000.0,0017.49,0004.41,0002.31
2022-05-20 02:44:00,,0812.5,5.00,0.00,29.4,27.7,00.0,38.4,31.2,16.1,0000.0,0017.38,0004.42,0002.32
2022-05-20 02:45:00,,0812.6,4.99,0.00,29.4,27.8,00.0,38.4,31.2,16.1,0000.0,0016.98,0004.40,0002.33
2022-05-20 02:46:00,,0812.6,5.00,0.00,29.4,27.9,00.0,38.4,31.3,16.1,0000.0,0018.09,0004.42,0002.33
2022-05-20 02:47:00,,0812.7,5.00,0.00,29.4,28.1,00.0,38.4,31.3,16.0,0000.0,0017.78,0004.42,0002.34
2022-05-20 02:48:00,,0812.8,5.00,0.00,29.4,28.2,00.0,38.4,31.3,15.9,0000.0,0017.07,0004.43,0002.35
2022-05-20 02:49:00,,0812.9,4.99,0.00,29.5,28.2,00.0,38.4,31.3,15.8,0000.0,0016.94,0004.49,0002.36
2022-05-20 02:50:00,,0812.9,4.99,0.00,29.5,28.3,00.0,38.4,31.4,15.7,0000.0,0017.10,0004.52,0002.35
2022-05-20 02:51:00,,0813.2,5.00,0.00,29.5,28.4,00.0,38.4,31.4,15.7,0000.0,0017.10,0004.47,0002.36
2022-05-20 02:52:00,,0813.0,5.00,0.00,29.5,28.4,00.0,38.4,31.4,15.6,0000.0,0016.60,0004.45,0002.35
2022-05-20 02:53:00,,0813.0,5.00,0.00,29.5,28.5,00.0,38.4,31.4,15.6,0000.0,0016.78,0004.45,0002.35
2022-05-20 02:54:00,,0813.0,5.00,0.00,29.5,28.5,00.0,38.4,31.4,15.6,0000.0,0017.67,0004.50,0002.35
2022-05-20 02:55:00,,0812.9,5.01,0.00,29.6,28.5,00.0,38.4,31.4,15.6,0000.0,0019.25,0004.54,0002.35
2022-05-20 02:56:00,,0812.9,5.00,0.00,29.6,28.6,00.0,38.4,31.5,15.5,0000.0,0019.09,0004.54,0002.36
2022-05-20 02:57:00,,0812.8,5.00,0.00,29.6,28.6,00.0,38.4,31.5,15.5,0000.0,0018.53,0004.49,0002.34
2022-05-20 02:58:00,,0812.9,5.00,0.00,29.6,28.6,00.0,38.5,31.5,15.5,0000.0,0017.78,0004.46,0002.32
2022-05-20 02:59:00,,0812.9,5.00,0.00,29.6,28.7,00.0,38.5,31.5,15.5,0000.0,0017.73,0004.40,0002.28
